Simultaneous Nadir Overpasses (SNOs) Predictions

Prediction of SNOs between AURA and LANDSAT-8 Satellite Orbit:

Table of predicted SNOs for the next 14.0 days since TLE Epoch: 11/23/2024
Index Date (AURA) Time (AURA) Lat,Lon (AURA) SZA (AURA ) Date (LANDSAT-8) Time (LANDSAT-8) Lat,Lon (LANDSAT-8) SZA (LANDSAT-8 ) Distance(km) Time Diff (sec)
1 12/01/2024 18:43:34 72.23, -98.11 94.17 12/01/2024 18:42:29 72.23,-100.92 94.10 95.20 65
2 12/01/2024 19:33:00 -72.52, 69.01 85.55 12/01/2024 19:31:52 -72.49, 67.20 85.62 60.75 68
3 12/01/2024 20:22:24 72.63,-123.53 94.56 12/01/2024 20:21:15 72.60,-124.95 94.50 47.24 69
4 12/01/2024 21:11:50 -72.91, 43.58 85.17 12/01/2024 21:10:38 -72.87, 43.19 85.23 13.93 72
5 12/01/2024 22:01:13 72.97,-148.86 94.89 12/01/2024 22:00:01 72.98,-148.94 94.90 2.85 72
6 12/01/2024 22:50:34 -72.99, 18.76 85.09 12/01/2024 22:49:29 -72.97, 18.68 85.11 2.97 65
7 12/01/2024 23:39:55 72.99,-173.58 94.92 12/01/2024 23:38:53 72.98,-173.66 94.91 2.61 62
8 12/02/2024 00:29:16 -73.01, -5.96 85.06 12/02/2024 00:28:20 -73.03, -5.93 85.04 2.42 56
9 12/02/2024 01:18:38 73.01, 161.70 94.96 12/02/2024 01:17:45 73.04, 161.73 94.98 3.09 53
10 12/02/2024 02:07:59 -73.03, -30.68 85.02 12/02/2024 02:07:13 -73.03, -30.64 85.03 1.18 46
11 12/02/2024 02:57:21 73.03, 136.98 94.99 12/02/2024 02:56:38 73.04, 137.01 94.99 1.48 43
12 12/02/2024 03:46:42 -73.05, -55.40 84.99 12/02/2024 03:46:06 -73.04, -55.36 85.01 2.40 36
13 12/02/2024 04:36:04 73.06, 112.26 95.02 12/02/2024 04:35:31 73.04, 112.30 95.00 1.97 33
14 12/02/2024 05:25:24 -73.02, -80.02 85.01 12/02/2024 05:24:59 -73.04, -80.08 85.00 2.60 25
15 12/02/2024 06:14:46 73.02, 87.64 95.00 12/02/2024 06:14:24 73.05, 87.58 95.02 3.01 22
16 12/02/2024 07:04:07 -73.04,-104.74 84.98 12/02/2024 07:03:52 -73.04,-104.79 84.99 1.82 15
17 12/02/2024 07:53:29 73.05, 62.92 95.03 12/02/2024 07:53:17 73.05, 62.87 95.03 1.70 12
18 12/02/2024 08:42:50 -73.07,-129.46 84.95 12/02/2024 08:42:45 -73.04,-129.51 84.98 3.00 5
19 12/02/2024 09:32:12 73.07, 38.20 95.06 12/02/2024 09:32:10 73.05, 38.15 95.04 2.46 2
20 12/02/2024 10:21:33 -73.09,-154.18 84.92 12/02/2024 10:21:37 -73.10,-154.12 84.91 2.29 4
21 12/02/2024 11:10:55 73.09, 13.48 95.09 12/02/2024 11:11:02 73.11, 13.54 95.11 2.73 7
22 12/02/2024 12:00:16 -73.11,-178.90 84.89 12/02/2024 12:00:30 -73.10,-178.83 84.90 2.38 14
23 12/02/2024 12:49:38 73.11, -11.24 95.12 12/02/2024 12:49:55 73.11, -11.17 95.12 2.33 17
24 12/02/2024 13:38:58 -73.08, 156.49 84.91 12/02/2024 13:39:23 -73.10, 156.45 84.88 2.87 25
25 12/02/2024 14:28:20 73.08, -35.86 95.10 12/02/2024 14:28:48 73.11, -35.89 95.13 3.35 28
26 12/02/2024 15:17:41 -73.10, 131.76 84.88 12/02/2024 15:18:16 -73.11, 131.74 84.87 1.01 35
27 12/02/2024 16:07:03 73.11, -60.58 95.13 12/02/2024 16:07:41 73.11, -60.60 95.15 1.25 38
28 12/02/2024 16:56:24 -73.13, 107.04 84.85 12/02/2024 16:57:09 -73.11, 107.02 84.86 1.89 45
29 12/02/2024 17:45:46 73.13, -85.30 95.17 12/02/2024 17:46:34 73.12, -85.32 95.16 1.37 48
30 12/02/2024 18:35:07 -73.15, 82.32 84.82 12/02/2024 18:36:01 -73.16, 82.41 84.79 3.46 54
31 12/02/2024 19:24:29 73.15,-110.03 95.20 12/02/2024 19:25:27 73.12,-110.04 95.17 3.51 58
32 12/02/2024 20:13:50 -73.17, 57.60 84.78 12/02/2024 20:14:54 -73.17, 57.69 84.78 3.15 64
33 12/02/2024 21:03:12 73.17,-134.75 95.23 12/02/2024 21:04:19 73.17,-134.65 95.24 3.29 67
34 12/02/2024 21:52:34 -73.25, 32.77 84.70 12/02/2024 21:53:46 -73.22, 33.09 84.71 10.54 72
35 12/02/2024 22:41:59 73.41,-159.91 95.46 12/02/2024 22:43:09 73.33,-159.04 95.41 28.79 70
36 12/02/2024 23:31:24 -73.63, 7.27 84.31 12/02/2024 23:32:32 -73.59, 9.13 84.32 58.67 68
37 12/03/2024 00:20:49 73.79, 174.58 95.85 12/03/2024 00:21:55 73.70, 177.02 95.81 76.80 66



Historial Predications of SNOs between AURA and LANDSAT-8
